User: anonymous   Login
Location: Unspecified
(0.0000°N, 0.0000°E)
Time: 05:46:14
(UTC+00:00)
Language:

STARLINK-30811 - Orbit

View from above orbital plane
View from above orbital plane
View from above satellite
View from above satellite

Ground track
Ground track

The orbit is defined by the following mean orbital elements,

1 58167U          26144.63383620 +.00000000 +00000-0 +36367-4 0 00007
2 58167  53.1597 226.3713 0000814  76.9872 283.1220 15.31706507    08
Epoch (UTC): 24 May 2026 15:12:43
Eccentricity: 0.0000814
inclination: 53.1597°
perigee height: 470 km
apogee height: 471 km
right ascension of ascending node: 226.3713°
argument of perigee: 76.9872°
revolutions per day: 15.31706507
mean anomaly at epoch: 283.1220°

The dashed part of the orbit path shows where the satellite is in the earth's shadow,  

DLR